Location: Killam
(52.7910°N, 111.8608°W)
Time: 17:34:44
(UTC+00:00)

CAS-6 - Visible Passes

Search period start: 19 April 2025 00:00
Search period end: 29 April 2025 00:00
Orbit: 602 x 622 km, 97.8° (Epoch: 19 April)

Date Brightness Start Highest point End Pass type
(mag) Time Alt. Az. Time Alt. Az. Time Alt. Az.
19 Apr ? 04:13:28 18° E 04:15:23 25° ENE 04:18:52 10° N visible
19 Apr ? 05:50:27 42° SW 05:51:09 46° W 05:55:16 10° NNW visible
20 Apr ? 04:28:21 23° ESE 04:30:06 33° ENE 04:33:54 10° N visible
20 Apr ? 06:05:21 31° WSW 06:06:02 33° W 06:09:56 10° NNW visible
21 Apr ? 04:43:14 30° ESE 04:44:50 44° ENE 04:48:52 10° N visible
21 Apr ? 06:20:14 24° WSW 06:20:59 25° W 06:24:31 10° NW visible
22 Apr ? 03:23:37 10° ENE 03:24:29 11° NE 03:25:20 10° NE visible
22 Apr ? 04:58:08 37° SE 04:59:35 59° ENE 05:03:47 10° N visible
22 Apr ? 06:35:07 18° WSW 06:35:56 19° W 06:38:58 10° NW visible
23 Apr ? 03:36:58 10° E 03:39:05 14° NE 03:41:12 10° NNE visible
23 Apr ? 05:13:01 43° SSE 05:14:22 81° ENE 05:18:39 10° NNW visible
23 Apr ? 06:50:01 13° W 06:50:56 14° W 06:53:10 10° NW visible
24 Apr ? 03:50:54 10° E 03:53:42 17° ENE 03:56:31 10° NNE visible
24 Apr ? 05:27:53 43° S 05:29:11 74° WSW 05:33:28 10° NNW visible
25 Apr ? 04:05:46 13° ESE 04:08:21 22° ENE 04:11:40 10° N visible
25 Apr ? 05:42:46 38° SSW 05:44:01 53° W 05:48:13 10° NNW visible
26 Apr ? 04:20:39 17° ESE 04:23:02 29° ENE 04:26:43 10° N visible
26 Apr ? 05:57:38 31° SW 05:58:53 39° W 06:02:55 10° NNW visible
27 Apr ? 04:35:31 22° ESE 04:37:43 38° ENE 04:41:41 10° N visible
27 Apr ? 06:12:30 24° SW 06:13:47 29° W 06:17:31 10° NNW visible
28 Apr ? 04:50:23 27° SE 04:52:27 51° ENE 04:56:36 10° N visible
28 Apr ? 06:27:23 19° WSW 06:28:43 21° W 06:32:01 10° NW visible
